TimeCDT,TemperatureF,Dew PointF,Humidity,Sea Level PressureIn,VisibilityMPH,Wind Direction,Wind SpeedMPH,Gust SpeedMPH,PrecipitationIn,Events,Conditions,WindDirDegrees,DateUTC
12:56 AM,46.0,39.9,79,30.29,10.0,Calm,Calm,-,N/A,,Scattered Clouds,0,2012-09-14 05:56:00
1:56 AM,46.9,43.0,86,30.30,10.0,Calm,Calm,-,N/A,,Scattered Clouds,0,2012-09-14 06:56:00
2:56 AM,48.9,42.1,77,30.31,10.0,Calm,Calm,-,N/A,,Overcast,0,2012-09-14 07:56:00
3:56 AM,50.0,41.0,71,30.28,10.0,Calm,Calm,-,N/A,,Mostly Cloudy,0,2012-09-14 08:56:00
4:56 AM,46.9,39.9,77,30.29,10.0,Calm,Calm,-,N/A,,Scattered Clouds,0,2012-09-14 09:56:00
5:56 AM,39.9,37.9,93,30.30,10.0,Calm,Calm,-,N/A,,Clear,0,2012-09-14 10:56:00
6:56 AM,43.0,41.0,93,30.31,10.0,Calm,Calm,-,N/A,,Clear,0,2012-09-14 11:56:00
7:56 AM,48.0,44.1,86,30.33,10.0,Calm,Calm,-,N/A,,Clear,0,2012-09-14 12:56:00
8:56 AM,55.9,43.0,62,30.34,10.0,Calm,Calm,-,N/A,,Clear,0,2012-09-14 13:56:00
9:56 AM,61.0,41.0,48,30.34,10.0,Calm,Calm,-,N/A,,Clear,0,2012-09-14 14:56:00
10:56 AM,63.0,37.9,40,30.35,10.0,Variable,3.5,-,N/A,,Clear,0,2012-09-14 15:56:00
11:56 AM,66.9,36.0,32,30.33,10.0,NNE,4.6,-,N/A,,Clear,30,2012-09-14 16:56:00
12:56 PM,69.1,36.0,30,30.32,10.0,ESE,6.9,-,N/A,,Clear,110,2012-09-14 17:56:00
1:56 PM,72.0,34.0,25,30.30,10.0,North,9.2,-,N/A,,Clear,360,2012-09-14 18:56:00
2:56 PM,72.0,32.0,23,30.29,10.0,WNW,5.8,-,N/A,,Clear,300,2012-09-14 19:56:00
3:56 PM,73.9,33.1,22,30.28,10.0,Variable,3.5,-,N/A,,Clear,0,2012-09-14 20:56:00
4:56 PM,73.9,32.0,21,30.27,10.0,Variable,5.8,-,N/A,,Clear,0,2012-09-14 21:56:00
5:56 PM,73.0,32.0,22,30.27,10.0,Calm,Calm,-,N/A,,Clear,0,2012-09-14 22:56:00
6:56 PM,69.1,35.1,29,30.27,10.0,NE,3.5,-,N/A,,Clear,40,2012-09-14 23:56:00
7:56 PM,57.0,37.9,49,30.28,10.0,Calm,Calm,-,N/A,,Clear,0,2012-09-15 00:56:00
8:56 PM,55.9,44.1,64,30.28,10.0,Calm,Calm,-,N/A,,Clear,0,2012-09-15 01:56:00
9:56 PM,50.0,39.9,68,30.29,10.0,Calm,Calm,-,N/A,,Clear,0,2012-09-15 02:56:00
10:56 PM,46.0,39.9,79,30.30,10.0,North,3.5,-,N/A,,Clear,10,2012-09-15 03:56:00
11:56 PM,46.9,45.0,93,30.28,10.0,NE,4.6,-,N/A,,Clear,50,2012-09-15 04:56:00